owner,sensor,date,latitude,longitude,air_temperature,qcFlag 
WAVCIS,ioos:station:WAVCIS:CSI06:1,2010-10-01T00:00:00Z,28.8667,-90.4833,31.51,11111222 
WAVCIS,ioos:station:WAVCIS:CSI06:1,2010-10-01T01:00:00Z,28.8667,-90.4833,31.16,11111222 
WAVCIS,ioos:station:WAVCIS:CSI06:1,2010-10-01T02:00:00Z,28.8667,-90.4833,30.74,11111222 
WAVCIS,ioos:station:WAVCIS:CSI06:1,2010-10-01T03:00:00Z,28.8667,-90.4833,30.85,11111222 
WAVCIS,ioos:station:WAVCIS:CSI06:1,2010-10-01T04:00:00Z,28.8667,-90.4833,31.17,11111222 
WAVCIS,ioos:station:WAVCIS:CSI06:1,2010-10-01T05:00:00Z,28.8667,-90.4833,30.77,11111222 
WAVCIS,ioos:station:WAVCIS:CSI06:1,2010-10-01T06:00:00Z,28.8667,-90.4833,31.03,11111222 
WAVCIS,ioos:station:WAVCIS:CSI06:1,2010-10-01T07:00:00Z,28.8667,-90.4833,31.11,11111222 
WAVCIS,ioos:station:WAVCIS:CSI06:1,2010-10-01T08:00:00Z,28.8667,-90.4833,30.62,11111222 
WAVCIS,ioos:station:WAVCIS:CSI06:1,2010-10-01T09:00:00Z,28.8667,-90.4833,30.07,11111222 
WAVCIS,ioos:station:WAVCIS:CSI06:1,2010-10-01T10:00:00Z,28.8667,-90.4833,29.88,11111222 
WAVCIS,ioos:station:WAVCIS:CSI06:1,2010-10-01T11:00:00Z,28.8667,-90.4833,29.64,11111222 
WAVCIS,ioos:station:WAVCIS:CSI06:1,2010-10-01T12:00:00Z,28.8667,-90.4833,28.98,11111222 
WAVCIS,ioos:station:WAVCIS:CSI06:1,2010-10-01T13:00:00Z,28.8667,-90.4833,28.5,11111222 
WAVCIS,ioos:station:WAVCIS:CSI06:1,2010-10-01T14:00:00Z,28.8667,-90.4833,28.67,11111222 
WAVCIS,ioos:station:WAVCIS:CSI06:1,2010-10-01T15:00:00Z,28.8667,-90.4833,28.56,11111222 
WAVCIS,ioos:station:WAVCIS:CSI06:1,2010-10-01T16:00:00Z,28.8667,-90.4833,28.7,11111222 
WAVCIS,ioos:station:WAVCIS:CSI06:1,2010-10-01T17:00:00Z,28.8667,-90.4833,29.0,11111222 
WAVCIS,ioos:station:WAVCIS:CSI06:1,2010-10-01T18:00:00Z,28.8667,-90.4833,29.48,11111222 
WAVCIS,ioos:station:WAVCIS:CSI06:1,2010-10-01T19:00:00Z,28.8667,-90.4833,30.11,11111222 
WAVCIS,ioos:station:WAVCIS:CSI06:1,2010-10-01T20:00:00Z,28.8667,-90.4833,31.17,11111222 
WAVCIS,ioos:station:WAVCIS:CSI06:1,2010-10-01T21:00:00Z,28.8667,-90.4833,31.95,11111222 
WAVCIS,ioos:station:WAVCIS:CSI06:1,2010-10-01T22:00:00Z,28.8667,-90.4833,31.89,11111222 
WAVCIS,ioos:station:WAVCIS:CSI06:1,2010-10-01T23:00:00Z,28.8667,-90.4833,31.32,11111222 
WAVCIS,ioos:station:WAVCIS:CSI06:1,2010-10-02T00:00:00Z,28.8667,-90.4833,31.06,11111222 
WAVCIS,ioos:station:WAVCIS:CSI06:1,2010-10-02T01:00:00Z,28.8667,-90.4833,31.62,11111222 
WAVCIS,ioos:station:WAVCIS:CSI06:1,2010-10-02T02:00:00Z,28.8667,-90.4833,31.47,11111222 
WAVCIS,ioos:station:WAVCIS:CSI06:1,2010-10-02T03:00:00Z,28.8667,-90.4833,30.08,11111222 
WAVCIS,ioos:station:WAVCIS:CSI06:1,2010-10-02T04:00:00Z,28.8667,-90.4833,29.94,11111222 
WAVCIS,ioos:station:WAVCIS:CSI06:1,2010-10-02T05:00:00Z,28.8667,-90.4833,29.71,11111222 
WAVCIS,ioos:station:WAVCIS:CSI06:1,2010-10-02T06:00:00Z,28.8667,-90.4833,28.9,11111222 
WAVCIS,ioos:station:WAVCIS:CSI06:1,2010-10-02T07:00:00Z,28.8667,-90.4833,29.01,11111222 
WAVCIS,ioos:station:WAVCIS:CSI06:1,2010-10-02T08:00:00Z,28.8667,-90.4833,28.38,11111222 
WAVCIS,ioos:station:WAVCIS:CSI06:1,2010-10-02T09:00:00Z,28.8667,-90.4833,27.89,11111222 
WAVCIS,ioos:station:WAVCIS:CSI06:1,2010-10-02T10:00:00Z,28.8667,-90.4833,27.51,11111222 
WAVCIS,ioos:station:WAVCIS:CSI06:1,2010-10-02T11:00:00Z,28.8667,-90.4833,27.1,11111222 
WAVCIS,ioos:station:WAVCIS:CSI06:1,2010-10-02T12:00:00Z,28.8667,-90.4833,27.28,11111222 
WAVCIS,ioos:station:WAVCIS:CSI06:1,2010-10-02T13:00:00Z,28.8667,-90.4833,27.11,11111222 
WAVCIS,ioos:station:WAVCIS:CSI06:1,2010-10-02T14:00:00Z,28.8667,-90.4833,26.9,11111222 
WAVCIS,ioos:station:WAVCIS:CSI06:1,2010-10-02T15:00:00Z,28.8667,-90.4833,26.67,11111222 
WAVCIS,ioos:station:WAVCIS:CSI06:1,2010-10-02T16:00:00Z,28.8667,-90.4833,27.45,11111222 
WAVCIS,ioos:station:WAVCIS:CSI06:1,2010-10-02T17:00:00Z,28.8667,-90.4833,28.11,11111222 
WAVCIS,ioos:station:WAVCIS:CSI06:1,2010-10-02T18:00:00Z,28.8667,-90.4833,28.73,11111222 
WAVCIS,ioos:station:WAVCIS:CSI06:1,2010-10-02T19:00:00Z,28.8667,-90.4833,29.2,11111222 
WAVCIS,ioos:station:WAVCIS:CSI06:1,2010-10-02T20:00:00Z,28.8667,-90.4833,29.22,11111222 
WAVCIS,ioos:station:WAVCIS:CSI06:1,2010-10-02T21:00:00Z,28.8667,-90.4833,29.45,11111222 
WAVCIS,ioos:station:WAVCIS:CSI06:1,2010-10-02T22:00:00Z,28.8667,-90.4833,30.15,11111222 
WAVCIS,ioos:station:WAVCIS:CSI06:1,2010-10-02T23:00:00Z,28.8667,-90.4833,29.87,11111222 
WAVCIS,ioos:station:WAVCIS:CSI06:1,2010-10-03T00:00:00Z,28.8667,-90.4833,30.06,11111222 
WAVCIS,ioos:station:WAVCIS:CSI06:1,2010-10-03T01:00:00Z,28.8667,-90.4833,30.15,11111222 
WAVCIS,ioos:station:WAVCIS:CSI06:1,2010-10-03T02:00:00Z,28.8667,-90.4833,30.21,11111222 
WAVCIS,ioos:station:WAVCIS:CSI06:1,2010-10-03T03:00:00Z,28.8667,-90.4833,29.59,11111222 
WAVCIS,ioos:station:WAVCIS:CSI06:1,2010-10-03T04:00:00Z,28.8667,-90.4833,29.24,11111222 
WAVCIS,ioos:station:WAVCIS:CSI06:1,2010-10-03T05:00:00Z,28.8667,-90.4833,28.94,11111222 
WAVCIS,ioos:station:WAVCIS:CSI06:1,2010-10-03T06:00:00Z,28.8667,-90.4833,28.87,11111222 
WAVCIS,ioos:station:WAVCIS:CSI06:1,2010-10-03T07:00:00Z,28.8667,-90.4833,28.41,11111222 
WAVCIS,ioos:station:WAVCIS:CSI06:1,2010-10-03T08:00:00Z,28.8667,-90.4833,28.29,11111222 
WAVCIS,ioos:station:WAVCIS:CSI06:1,2010-10-03T09:00:00Z,28.8667,-90.4833,28.1,11111222 
WAVCIS,ioos:station:WAVCIS:CSI06:1,2010-10-03T10:00:00Z,28.8667,-90.4833,27.78,11111222 
WAVCIS,ioos:station:WAVCIS:CSI06:1,2010-10-03T11:00:00Z,28.8667,-90.4833,27.57,11111222 
WAVCIS,ioos:station:WAVCIS:CSI06:1,2010-10-03T12:00:00Z,28.8667,-90.4833,26.61,11111222 
WAVCIS,ioos:station:WAVCIS:CSI06:1,2010-10-03T13:00:00Z,28.8667,-90.4833,25.33,11111222 
WAVCIS,ioos:station:WAVCIS:CSI06:1,2010-10-03T14:00:00Z,28.8667,-90.4833,24.31,11111222 
WAVCIS,ioos:station:WAVCIS:CSI06:1,2010-10-03T15:00:00Z,28.8667,-90.4833,24.23,11111222 
WAVCIS,ioos:station:WAVCIS:CSI06:1,2010-10-03T16:00:00Z,28.8667,-90.4833,24.36,11111222 
WAVCIS,ioos:station:WAVCIS:CSI06:1,2010-10-03T17:00:00Z,28.8667,-90.4833,25.22,11111222 
WAVCIS,ioos:station:WAVCIS:CSI06:1,2010-10-03T18:00:00Z,28.8667,-90.4833,25.57,11111222 
WAVCIS,ioos:station:WAVCIS:CSI06:1,2010-10-03T19:00:00Z,28.8667,-90.4833,26.28,11111222 
WAVCIS,ioos:station:WAVCIS:CSI06:1,2010-10-03T20:00:00Z,28.8667,-90.4833,26.91,11111222 
WAVCIS,ioos:station:WAVCIS:CSI06:1,2010-10-03T21:00:00Z,28.8667,-90.4833,27.79,11111222 
WAVCIS,ioos:station:WAVCIS:CSI06:1,2010-10-03T22:00:00Z,28.8667,-90.4833,28.17,11111222 
WAVCIS,ioos:station:WAVCIS:CSI06:1,2010-10-03T23:00:00Z,28.8667,-90.4833,28.18,11111222 
WAVCIS,ioos:station:WAVCIS:CSI06:1,2010-10-04T00:00:00Z,28.8667,-90.4833,27.79,11111222 
WAVCIS,ioos:station:WAVCIS:CSI06:1,2010-10-04T01:00:00Z,28.8667,-90.4833,27.27,11111222 
WAVCIS,ioos:station:WAVCIS:CSI06:1,2010-10-04T02:00:00Z,28.8667,-90.4833,27.09,11111222 
WAVCIS,ioos:station:WAVCIS:CSI06:1,2010-10-04T03:00:00Z,28.8667,-90.4833,26.68,11111222 
WAVCIS,ioos:station:WAVCIS:CSI06:1,2010-10-04T04:00:00Z,28.8667,-90.4833,26.42,11111222 
WAVCIS,ioos:station:WAVCIS:CSI06:1,2010-10-04T05:00:00Z,28.8667,-90.4833,26.07,11111222 
WAVCIS,ioos:station:WAVCIS:CSI06:1,2010-10-04T06:00:00Z,28.8667,-90.4833,25.33,11111222 
WAVCIS,ioos:station:WAVCIS:CSI06:1,2010-10-04T07:00:00Z,28.8667,-90.4833,24.97,11111222 
WAVCIS,ioos:station:WAVCIS:CSI06:1,2010-10-04T08:00:00Z,28.8667,-90.4833,24.51,11111222 
WAVCIS,ioos:station:WAVCIS:CSI06:1,2010-10-04T09:00:00Z,28.8667,-90.4833,23.69,11111222 
WAVCIS,ioos:station:WAVCIS:CSI06:1,2010-10-04T10:00:00Z,28.8667,-90.4833,23.16,11111222 
WAVCIS,ioos:station:WAVCIS:CSI06:1,2010-10-04T11:00:00Z,28.8667,-90.4833,22.77,11111222 
WAVCIS,ioos:station:WAVCIS:CSI06:1,2010-10-04T12:00:00Z,28.8667,-90.4833,22.43,11111222 
WAVCIS,ioos:station:WAVCIS:CSI06:1,2010-10-04T13:00:00Z,28.8667,-90.4833,22.17,11111222 
WAVCIS,ioos:station:WAVCIS:CSI06:1,2010-10-04T14:00:00Z,28.8667,-90.4833,22.14,11111222 
WAVCIS,ioos:station:WAVCIS:CSI06:1,2010-10-04T15:00:00Z,28.8667,-90.4833,22.07,11111222 
WAVCIS,ioos:station:WAVCIS:CSI06:1,2010-10-04T16:00:00Z,28.8667,-90.4833,22.59,11111222 
WAVCIS,ioos:station:WAVCIS:CSI06:1,2010-10-04T17:00:00Z,28.8667,-90.4833,22.54,11111222 
WAVCIS,ioos:station:WAVCIS:CSI06:1,2010-10-04T18:00:00Z,28.8667,-90.4833,22.47,11111222 
WAVCIS,ioos:station:WAVCIS:CSI06:1,2010-10-04T19:00:00Z,28.8667,-90.4833,22.32,11111222 
WAVCIS,ioos:station:WAVCIS:CSI06:1,2010-10-04T20:00:00Z,28.8667,-90.4833,22.85,11111222 
WAVCIS,ioos:station:WAVCIS:CSI06:1,2010-10-04T21:00:00Z,28.8667,-90.4833,23.16,11111222 
WAVCIS,ioos:station:WAVCIS:CSI06:1,2010-10-04T22:00:00Z,28.8667,-90.4833,23.77,11111222 
WAVCIS,ioos:station:WAVCIS:CSI06:1,2010-10-04T23:00:00Z,28.8667,-90.4833,24.37,11111222 
WAVCIS,ioos:station:WAVCIS:CSI06:1,2010-10-05T00:00:00Z,28.8667,-90.4833,24.26,11111222 
WAVCIS,ioos:station:WAVCIS:CSI06:1,2010-10-05T01:00:00Z,28.8667,-90.4833,24.79,11111222 
WAVCIS,ioos:station:WAVCIS:CSI06:1,2010-10-05T02:00:00Z,28.8667,-90.4833,25.09,11111222 
WAVCIS,ioos:station:WAVCIS:CSI06:1,2010-10-05T03:00:00Z,28.8667,-90.4833,25.38,11111222 
WAVCIS,ioos:station:WAVCIS:CSI06:1,2010-10-05T04:00:00Z,28.8667,-90.4833,25.64,11111222 
WAVCIS,ioos:station:WAVCIS:CSI06:1,2010-10-05T05:00:00Z,28.8667,-90.4833,25.33,11111222 
WAVCIS,ioos:station:WAVCIS:CSI06:1,2010-10-05T06:00:00Z,28.8667,-90.4833,25.39,11111222 
WAVCIS,ioos:station:WAVCIS:CSI06:1,2010-10-05T07:00:00Z,28.8667,-90.4833,24.79,11111222 
WAVCIS,ioos:station:WAVCIS:CSI06:1,2010-10-05T08:00:00Z,28.8667,-90.4833,24.36,11111222 
WAVCIS,ioos:station:WAVCIS:CSI06:1,2010-10-05T09:00:00Z,28.8667,-90.4833,24.3,11111222 
WAVCIS,ioos:station:WAVCIS:CSI06:1,2010-10-05T10:00:00Z,28.8667,-90.4833,23.65,11111222 
WAVCIS,ioos:station:WAVCIS:CSI06:1,2010-10-05T11:00:00Z,28.8667,-90.4833,23.22,11111222 
WAVCIS,ioos:station:WAVCIS:CSI06:1,2010-10-05T12:00:00Z,28.8667,-90.4833,22.99,11111222 
WAVCIS,ioos:station:WAVCIS:CSI06:1,2010-10-05T13:00:00Z,28.8667,-90.4833,22.99,11111222 
WAVCIS,ioos:station:WAVCIS:CSI06:1,2010-10-05T14:00:00Z,28.8667,-90.4833,23.09,11111222 
WAVCIS,ioos:station:WAVCIS:CSI06:1,2010-10-05T15:00:00Z,28.8667,-90.4833,23.28,11111222 
WAVCIS,ioos:station:WAVCIS:CSI06:1,2010-10-05T16:00:00Z,28.8667,-90.4833,23.35,11111222 
WAVCIS,ioos:station:WAVCIS:CSI06:1,2010-10-05T17:00:00Z,28.8667,-90.4833,23.6,11111222 
WAVCIS,ioos:station:WAVCIS:CSI06:1,2010-10-05T18:00:00Z,28.8667,-90.4833,23.68,11111222 
WAVCIS,ioos:station:WAVCIS:CSI06:1,2010-10-05T19:00:00Z,28.8667,-90.4833,23.4,11111222 
WAVCIS,ioos:station:WAVCIS:CSI06:1,2010-10-05T20:00:00Z,28.8667,-90.4833,23.71,11111222 
WAVCIS,ioos:station:WAVCIS:CSI06:1,2010-10-05T21:00:00Z,28.8667,-90.4833,24.19,11111222 
WAVCIS,ioos:station:WAVCIS:CSI06:1,2010-10-05T22:00:00Z,28.8667,-90.4833,24.18,11111222 
WAVCIS,ioos:station:WAVCIS:CSI06:1,2010-10-05T23:00:00Z,28.8667,-90.4833,24.85,11111222 
WAVCIS,ioos:station:WAVCIS:CSI06:1,2010-10-06T00:00:00Z,28.8667,-90.4833,25.0,11111222 
WAVCIS,ioos:station:WAVCIS:CSI06:1,2010-10-06T01:00:00Z,28.8667,-90.4833,25.25,11111222 
WAVCIS,ioos:station:WAVCIS:CSI06:1,2010-10-06T02:00:00Z,28.8667,-90.4833,25.52,11111222 
WAVCIS,ioos:station:WAVCIS:CSI06:1,2010-10-06T03:00:00Z,28.8667,-90.4833,25.92,11111222 
WAVCIS,ioos:station:WAVCIS:CSI06:1,2010-10-06T04:00:00Z,28.8667,-90.4833,26.02,11111222 
WAVCIS,ioos:station:WAVCIS:CSI06:1,2010-10-06T05:00:00Z,28.8667,-90.4833,25.96,11111222 
WAVCIS,ioos:station:WAVCIS:CSI06:1,2010-10-06T06:00:00Z,28.8667,-90.4833,26.15,11111222 
WAVCIS,ioos:station:WAVCIS:CSI06:1,2010-10-06T07:00:00Z,28.8667,-90.4833,25.72,11111222 
WAVCIS,ioos:station:WAVCIS:CSI06:1,2010-10-06T08:00:00Z,28.8667,-90.4833,25.29,11111222 
WAVCIS,ioos:station:WAVCIS:CSI06:1,2010-10-06T09:00:00Z,28.8667,-90.4833,25.42,11111222 
WAVCIS,ioos:station:WAVCIS:CSI06:1,2010-10-06T10:00:00Z,28.8667,-90.4833,25.18,11111222 
WAVCIS,ioos:station:WAVCIS:CSI06:1,2010-10-06T11:00:00Z,28.8667,-90.4833,24.95,11111222 
WAVCIS,ioos:station:WAVCIS:CSI06:1,2010-10-06T12:00:00Z,28.8667,-90.4833,24.7,11111222 
WAVCIS,ioos:station:WAVCIS:CSI06:1,2010-10-06T13:00:00Z,28.8667,-90.4833,24.05,11111222 
WAVCIS,ioos:station:WAVCIS:CSI06:1,2010-10-06T14:00:00Z,28.8667,-90.4833,24.31,11111222 
WAVCIS,ioos:station:WAVCIS:CSI06:1,2010-10-06T15:00:00Z,28.8667,-90.4833,24.58,11111222 
WAVCIS,ioos:station:WAVCIS:CSI06:1,2010-10-06T16:00:00Z,28.8667,-90.4833,24.81,11111222 
WAVCIS,ioos:station:WAVCIS:CSI06:1,2010-10-06T17:00:00Z,28.8667,-90.4833,25.25,11111222 
WAVCIS,ioos:station:WAVCIS:CSI06:1,2010-10-06T18:00:00Z,28.8667,-90.4833,25.79,11111222 
WAVCIS,ioos:station:WAVCIS:CSI06:1,2010-10-06T19:00:00Z,28.8667,-90.4833,25.8,11111222 
WAVCIS,ioos:station:WAVCIS:CSI06:1,2010-10-06T20:00:00Z,28.8667,-90.4833,26.39,11111222 
WAVCIS,ioos:station:WAVCIS:CSI06:1,2010-10-06T21:00:00Z,28.8667,-90.4833,26.65,11111222 
WAVCIS,ioos:station:WAVCIS:CSI06:1,2010-10-06T22:00:00Z,28.8667,-90.4833,27.04,11111222 
WAVCIS,ioos:station:WAVCIS:CSI06:1,2010-10-06T23:00:00Z,28.8667,-90.4833,27.35,11111222 
WAVCIS,ioos:station:WAVCIS:CSI06:1,2010-10-07T00:00:00Z,28.8667,-90.4833,27.12,11111222 
WAVCIS,ioos:station:WAVCIS:CSI06:1,2010-10-07T01:00:00Z,28.8667,-90.4833,27.05,11111222 
WAVCIS,ioos:station:WAVCIS:CSI06:1,2010-10-07T02:00:00Z,28.8667,-90.4833,27.15,11111222 
WAVCIS,ioos:station:WAVCIS:CSI06:1,2010-10-07T03:00:00Z,28.8667,-90.4833,27.18,11111222 
WAVCIS,ioos:station:WAVCIS:CSI06:1,2010-10-07T04:00:00Z,28.8667,-90.4833,27.12,11111222 
WAVCIS,ioos:station:WAVCIS:CSI06:1,2010-10-07T05:00:00Z,28.8667,-90.4833,26.75,11111222 
WAVCIS,ioos:station:WAVCIS:CSI06:1,2010-10-07T06:00:00Z,28.8667,-90.4833,26.7,11111222 
WAVCIS,ioos:station:WAVCIS:CSI06:1,2010-10-07T07:00:00Z,28.8667,-90.4833,26.82,11111222 
WAVCIS,ioos:station:WAVCIS:CSI06:1,2010-10-07T08:00:00Z,28.8667,-90.4833,26.42,11111222 
WAVCIS,ioos:station:WAVCIS:CSI06:1,2010-10-07T09:00:00Z,28.8667,-90.4833,25.89,11111222 
WAVCIS,ioos:station:WAVCIS:CSI06:1,2010-10-07T10:00:00Z,28.8667,-90.4833,25.36,11111222 
WAVCIS,ioos:station:WAVCIS:CSI06:1,2010-10-07T11:00:00Z,28.8667,-90.4833,26.11,11111222 
WAVCIS,ioos:station:WAVCIS:CSI06:1,2010-10-07T12:00:00Z,28.8667,-90.4833,25.89,11111222 
WAVCIS,ioos:station:WAVCIS:CSI06:1,2010-10-07T13:00:00Z,28.8667,-90.4833,25.69,11111222 
WAVCIS,ioos:station:WAVCIS:CSI06:1,2010-10-07T14:00:00Z,28.8667,-90.4833,25.61,11111222 
WAVCIS,ioos:station:WAVCIS:CSI06:1,2010-10-07T15:00:00Z,28.8667,-90.4833,25.48,11111222 
WAVCIS,ioos:station:WAVCIS:CSI06:1,2010-10-07T16:00:00Z,28.8667,-90.4833,25.41,11111222 
WAVCIS,ioos:station:WAVCIS:CSI06:1,2010-10-07T17:00:00Z,28.8667,-90.4833,25.89,11111222 
WAVCIS,ioos:station:WAVCIS:CSI06:1,2010-10-07T18:00:00Z,28.8667,-90.4833,26.4,11111222 
WAVCIS,ioos:station:WAVCIS:CSI06:1,2010-10-07T19:00:00Z,28.8667,-90.4833,27.1,11111222 
WAVCIS,ioos:station:WAVCIS:CSI06:1,2010-10-07T20:00:00Z,28.8667,-90.4833,27.89,11111222 
WAVCIS,ioos:station:WAVCIS:CSI06:1,2010-10-07T21:00:00Z,28.8667,-90.4833,28.42,11111222 
WAVCIS,ioos:station:WAVCIS:CSI06:1,2010-10-07T22:00:00Z,28.8667,-90.4833,29.51,11111222 
WAVCIS,ioos:station:WAVCIS:CSI06:1,2010-10-07T23:00:00Z,28.8667,-90.4833,31.22,11111222 
WAVCIS,ioos:station:WAVCIS:CSI06:1,2010-10-08T00:00:00Z,28.8667,-90.4833,27.84,11111222 
WAVCIS,ioos:station:WAVCIS:CSI06:1,2010-10-08T01:00:00Z,28.8667,-90.4833,27.72,11111222 
WAVCIS,ioos:station:WAVCIS:CSI06:1,2010-10-08T02:00:00Z,28.8667,-90.4833,27.67,11111222 
WAVCIS,ioos:station:WAVCIS:CSI06:1,2010-10-08T03:00:00Z,28.8667,-90.4833,27.4,11111222 
WAVCIS,ioos:station:WAVCIS:CSI06:1,2010-10-08T04:00:00Z,28.8667,-90.4833,27.48,11111222 
WAVCIS,ioos:station:WAVCIS:CSI06:1,2010-10-08T05:00:00Z,28.8667,-90.4833,27.61,11111222 
WAVCIS,ioos:station:WAVCIS:CSI06:1,2010-10-08T06:00:00Z,28.8667,-90.4833,27.35,11111222 
WAVCIS,ioos:station:WAVCIS:CSI06:1,2010-10-08T07:00:00Z,28.8667,-90.4833,27.27,11111222 
WAVCIS,ioos:station:WAVCIS:CSI06:1,2010-10-08T08:00:00Z,28.8667,-90.4833,26.51,11111222 
WAVCIS,ioos:station:WAVCIS:CSI06:1,2010-10-08T09:00:00Z,28.8667,-90.4833,26.45,11111222 
WAVCIS,ioos:station:WAVCIS:CSI06:1,2010-10-08T10:00:00Z,28.8667,-90.4833,26.55,11111222 
WAVCIS,ioos:station:WAVCIS:CSI06:1,2010-10-08T11:00:00Z,28.8667,-90.4833,26.18,11111222 
WAVCIS,ioos:station:WAVCIS:CSI06:1,2010-10-08T12:00:00Z,28.8667,-90.4833,25.93,11111222 
WAVCIS,ioos:station:WAVCIS:CSI06:1,2010-10-08T13:00:00Z,28.8667,-90.4833,26.08,11111222 
WAVCIS,ioos:station:WAVCIS:CSI06:1,2010-10-08T14:00:00Z,28.8667,-90.4833,26.08,11111222 
WAVCIS,ioos:station:WAVCIS:CSI06:1,2010-10-08T15:00:00Z,28.8667,-90.4833,26.27,11111222 
WAVCIS,ioos:station:WAVCIS:CSI06:1,2010-10-08T16:00:00Z,28.8667,-90.4833,26.95,11111222 
WAVCIS,ioos:station:WAVCIS:CSI06:1,2010-10-08T17:00:00Z,28.8667,-90.4833,27.71,11111222 
WAVCIS,ioos:station:WAVCIS:CSI06:1,2010-10-08T18:00:00Z,28.8667,-90.4833,28.08,11111222 
WAVCIS,ioos:station:WAVCIS:CSI06:1,2010-10-08T19:00:00Z,28.8667,-90.4833,28.79,11111222 
WAVCIS,ioos:station:WAVCIS:CSI06:1,2010-10-08T20:00:00Z,28.8667,-90.4833,29.63,11111222 
WAVCIS,ioos:station:WAVCIS:CSI06:1,2010-10-08T21:00:00Z,28.8667,-90.4833,29.98,11111222 
WAVCIS,ioos:station:WAVCIS:CSI06:1,2010-10-08T22:00:00Z,28.8667,-90.4833,30.73,11111222 
WAVCIS,ioos:station:WAVCIS:CSI06:1,2010-10-08T23:00:00Z,28.8667,-90.4833,30.11,11111222 
WAVCIS,ioos:station:WAVCIS:CSI06:1,2010-10-09T00:00:00Z,28.8667,-90.4833,28.84,11111222 
WAVCIS,ioos:station:WAVCIS:CSI06:1,2010-10-09T01:00:00Z,28.8667,-90.4833,28.76,11111222 
WAVCIS,ioos:station:WAVCIS:CSI06:1,2010-10-09T02:00:00Z,28.8667,-90.4833,28.57,11111222 
WAVCIS,ioos:station:WAVCIS:CSI06:1,2010-10-09T03:00:00Z,28.8667,-90.4833,28.48,11111222 
WAVCIS,ioos:station:WAVCIS:CSI06:1,2010-10-09T04:00:00Z,28.8667,-90.4833,28.59,11111222 
WAVCIS,ioos:station:WAVCIS:CSI06:1,2010-10-09T05:00:00Z,28.8667,-90.4833,28.67,11111222 
WAVCIS,ioos:station:WAVCIS:CSI06:1,2010-10-09T06:00:00Z,28.8667,-90.4833,28.71,11111222 
WAVCIS,ioos:station:WAVCIS:CSI06:1,2010-10-09T07:00:00Z,28.8667,-90.4833,28.3,11111222 
WAVCIS,ioos:station:WAVCIS:CSI06:1,2010-10-09T08:00:00Z,28.8667,-90.4833,28.65,11111222 
WAVCIS,ioos:station:WAVCIS:CSI06:1,2010-10-09T09:00:00Z,28.8667,-90.4833,28.01,11111222 
WAVCIS,ioos:station:WAVCIS:CSI06:1,2010-10-09T10:00:00Z,28.8667,-90.4833,28.0,11111222 
WAVCIS,ioos:station:WAVCIS:CSI06:1,2010-10-09T11:00:00Z,28.8667,-90.4833,27.82,11111222 
WAVCIS,ioos:station:WAVCIS:CSI06:1,2010-10-09T12:00:00Z,28.8667,-90.4833,28.09,11111222 
WAVCIS,ioos:station:WAVCIS:CSI06:1,2010-10-09T13:00:00Z,28.8667,-90.4833,28.23,11111222 
WAVCIS,ioos:station:WAVCIS:CSI06:1,2010-10-09T14:00:00Z,28.8667,-90.4833,27.87,11111222 
WAVCIS,ioos:station:WAVCIS:CSI06:1,2010-10-09T15:00:00Z,28.8667,-90.4833,27.74,11111222 
WAVCIS,ioos:station:WAVCIS:CSI06:1,2010-10-09T16:00:00Z,28.8667,-90.4833,27.43,11111222 
WAVCIS,ioos:station:WAVCIS:CSI06:1,2010-10-09T17:00:00Z,28.8667,-90.4833,27.7,11111222 
WAVCIS,ioos:station:WAVCIS:CSI06:1,2010-10-09T18:00:00Z,28.8667,-90.4833,27.8,11111222 
WAVCIS,ioos:station:WAVCIS:CSI06:1,2010-10-09T19:00:00Z,28.8667,-90.4833,28.08,11111222 
WAVCIS,ioos:station:WAVCIS:CSI06:1,2010-10-09T20:00:00Z,28.8667,-90.4833,28.49,11111222 
WAVCIS,ioos:station:WAVCIS:CSI06:1,2010-10-09T21:00:00Z,28.8667,-90.4833,28.96,11111222 
WAVCIS,ioos:station:WAVCIS:CSI06:1,2010-10-09T22:00:00Z,28.8667,-90.4833,29.02,11111222 
WAVCIS,ioos:station:WAVCIS:CSI06:1,2010-10-09T23:00:00Z,28.8667,-90.4833,29.38,11111222 
WAVCIS,ioos:station:WAVCIS:CSI06:1,2010-10-10T00:00:00Z,28.8667,-90.4833,29.19,11111222 
WAVCIS,ioos:station:WAVCIS:CSI06:1,2010-10-10T01:00:00Z,28.8667,-90.4833,28.76,11111222 
WAVCIS,ioos:station:WAVCIS:CSI06:1,2010-10-10T02:00:00Z,28.8667,-90.4833,28.63,11111222 
WAVCIS,ioos:station:WAVCIS:CSI06:1,2010-10-10T03:00:00Z,28.8667,-90.4833,28.39,11111222 
WAVCIS,ioos:station:WAVCIS:CSI06:1,2010-10-10T04:00:00Z,28.8667,-90.4833,27.97,11111222 
WAVCIS,ioos:station:WAVCIS:CSI06:1,2010-10-10T05:00:00Z,28.8667,-90.4833,27.77,11111222 
WAVCIS,ioos:station:WAVCIS:CSI06:1,2010-10-10T06:00:00Z,28.8667,-90.4833,27.58,11111222 
WAVCIS,ioos:station:WAVCIS:CSI06:1,2010-10-10T07:00:00Z,28.8667,-90.4833,27.47,11111222 
WAVCIS,ioos:station:WAVCIS:CSI06:1,2010-10-10T08:00:00Z,28.8667,-90.4833,27.27,11111222 
WAVCIS,ioos:station:WAVCIS:CSI06:1,2010-10-10T09:00:00Z,28.8667,-90.4833,27.12,11111222 
WAVCIS,ioos:station:WAVCIS:CSI06:1,2010-10-10T10:00:00Z,28.8667,-90.4833,27.13,11111222 
WAVCIS,ioos:station:WAVCIS:CSI06:1,2010-10-10T11:00:00Z,28.8667,-90.4833,27.1,11111222 
WAVCIS,ioos:station:WAVCIS:CSI06:1,2010-10-10T12:00:00Z,28.8667,-90.4833,27.1,11111222 
WAVCIS,ioos:station:WAVCIS:CSI06:1,2010-10-10T13:00:00Z,28.8667,-90.4833,27.19,11111222 
WAVCIS,ioos:station:WAVCIS:CSI06:1,2010-10-10T14:00:00Z,28.8667,-90.4833,27.59,11111222 
WAVCIS,ioos:station:WAVCIS:CSI06:1,2010-10-10T15:00:00Z,28.8667,-90.4833,27.67,11111222 
WAVCIS,ioos:station:WAVCIS:CSI06:1,2010-10-10T16:00:00Z,28.8667,-90.4833,27.84,11111222 
WAVCIS,ioos:station:WAVCIS:CSI06:1,2010-10-10T17:00:00Z,28.8667,-90.4833,27.97,11111222 
WAVCIS,ioos:station:WAVCIS:CSI06:1,2010-10-10T18:00:00Z,28.8667,-90.4833,28.18,11111222 
WAVCIS,ioos:station:WAVCIS:CSI06:1,2010-10-10T19:00:00Z,28.8667,-90.4833,28.18,11111222 
WAVCIS,ioos:station:WAVCIS:CSI06:1,2010-10-10T20:00:00Z,28.8667,-90.4833,28.36,11111222 
WAVCIS,ioos:station:WAVCIS:CSI06:1,2010-10-10T21:00:00Z,28.8667,-90.4833,28.67,11111222 
WAVCIS,ioos:station:WAVCIS:CSI06:1,2010-10-10T22:00:00Z,28.8667,-90.4833,28.96,11111222 
WAVCIS,ioos:station:WAVCIS:CSI06:1,2010-10-10T23:00:00Z,28.8667,-90.4833,28.96,11111222 
WAVCIS,ioos:station:WAVCIS:CSI06:1,2010-10-11T00:00:00Z,28.8667,-90.4833,28.53,11111222 
WAVCIS,ioos:station:WAVCIS:CSI06:1,2010-10-11T01:00:00Z,28.8667,-90.4833,28.43,11111222 
WAVCIS,ioos:station:WAVCIS:CSI06:1,2010-10-11T02:00:00Z,28.8667,-90.4833,28.38,11111222 
WAVCIS,ioos:station:WAVCIS:CSI06:1,2010-10-11T03:00:00Z,28.8667,-90.4833,28.39,11111222 
WAVCIS,ioos:station:WAVCIS:CSI06:1,2010-10-11T04:00:00Z,28.8667,-90.4833,28.37,11111222 
WAVCIS,ioos:station:WAVCIS:CSI06:1,2010-10-11T05:00:00Z,28.8667,-90.4833,28.32,11111222 
WAVCIS,ioos:station:WAVCIS:CSI06:1,2010-10-11T06:00:00Z,28.8667,-90.4833,28.42,11111222 
WAVCIS,ioos:station:WAVCIS:CSI06:1,2010-10-11T07:00:00Z,28.8667,-90.4833,28.45,11111222 
WAVCIS,ioos:station:WAVCIS:CSI06:1,2010-10-11T08:00:00Z,28.8667,-90.4833,28.5,11111222 
WAVCIS,ioos:station:WAVCIS:CSI06:1,2010-10-11T09:00:00Z,28.8667,-90.4833,28.43,11111222 
WAVCIS,ioos:station:WAVCIS:CSI06:1,2010-10-11T10:00:00Z,28.8667,-90.4833,28.16,11111222 
WAVCIS,ioos:station:WAVCIS:CSI06:1,2010-10-11T11:00:00Z,28.8667,-90.4833,28.35,11111222 
WAVCIS,ioos:station:WAVCIS:CSI06:1,2010-10-11T12:00:00Z,28.8667,-90.4833,28.44,11111222 
WAVCIS,ioos:station:WAVCIS:CSI06:1,2010-10-11T13:00:00Z,28.8667,-90.4833,28.75,11111222 
WAVCIS,ioos:station:WAVCIS:CSI06:1,2010-10-11T14:00:00Z,28.8667,-90.4833,29.02,11111222 
WAVCIS,ioos:station:WAVCIS:CSI06:1,2010-10-11T15:00:00Z,28.8667,-90.4833,29.2,11111222 
WAVCIS,ioos:station:WAVCIS:CSI06:1,2010-10-11T16:00:00Z,28.8667,-90.4833,29.36,11111222 
WAVCIS,ioos:station:WAVCIS:CSI06:1,2010-10-11T17:00:00Z,28.8667,-90.4833,29.54,11111222 
WAVCIS,ioos:station:WAVCIS:CSI06:1,2010-10-11T18:00:00Z,28.8667,-90.4833,29.87,11111222 
WAVCIS,ioos:station:WAVCIS:CSI06:1,2010-10-11T19:00:00Z,28.8667,-90.4833,29.79,11111222 
WAVCIS,ioos:station:WAVCIS:CSI06:1,2010-10-11T20:00:00Z,28.8667,-90.4833,29.88,11111222 
WAVCIS,ioos:station:WAVCIS:CSI06:1,2010-10-11T21:00:00Z,28.8667,-90.4833,29.74,11111222 
WAVCIS,ioos:station:WAVCIS:CSI06:1,2010-10-11T22:00:00Z,28.8667,-90.4833,29.77,11111222 
WAVCIS,ioos:station:WAVCIS:CSI06:1,2010-10-11T23:00:00Z,28.8667,-90.4833,29.72,11111222 
WAVCIS,ioos:station:WAVCIS:CSI06:1,2010-10-12T00:00:00Z,28.8667,-90.4833,29.34,11111222 
WAVCIS,ioos:station:WAVCIS:CSI06:1,2010-10-12T01:00:00Z,28.8667,-90.4833,29.4,11111222 
WAVCIS,ioos:station:WAVCIS:CSI06:1,2010-10-12T02:00:00Z,28.8667,-90.4833,29.32,11111222 
WAVCIS,ioos:station:WAVCIS:CSI06:1,2010-10-12T03:00:00Z,28.8667,-90.4833,29.27,11111222 
WAVCIS,ioos:station:WAVCIS:CSI06:1,2010-10-12T04:00:00Z,28.8667,-90.4833,29.14,11111222 